www.pogodaiklimat.ru

Погода и климат >> Архив погоды >> Россия >> Кемеровская область >> Мариинск


ПОГОДА в Мариинске

  • Прогноз погоды в Мариинске
  • Монитор погоды в Мариинске

АРХИВ ПОГОДЫ в Мариинске

Время (UTC), дата Ветер
(напр.,м/с)
 
Видим.   Явления Облачность Т
(С)
Тd
(С)
f
(%)
Тe
(С)
Тes
(С)
Комфортность P
(гПа)
Po
(гПа)
Тmin
(С)
Tmax
(С)
R
(мм)
R24
(мм)
S
(см)
21 17.05 штиль 0 20 км 6/3 600 м
[Cb calv Ac trans Ci sp]
+2.8 -7.3 47 +3 +3 1021.1 1003.1
00 18.05 ЮВ 1 50 км 10/1 600 м
[Cb calv Ac trans Ci sp]
+4.8 -3.3 56 +4 +5 1020.8 1002.9 +1.5
03 18.05 ЮЗ 5-10
{10}
50 км 10/0
[Ci sp]
+11.4 -4.9 32 +9 +13 1019.1 1001.7
06 18.05 Ю 2
{13}
50 км 10/3 600 м
[Cb calv Ci sp]
+12.7 -6.4 26 +12 +21 1017.1 999.8
09 18.05 Ю 3
{11}
50 км 10/5 600 м
[Cb calv Ci sp]
+14.3 -5.4 25 +14 +17 1015.5 998.3
12 18.05 ЮЗ 3 50 км 10/4 600 м
[Cb calv Ci sp]
+13.7 -5.1 27 +13 +14 1013.9 996.7 +14.7
15 18.05 ЮВ 2 20 км 10/5 600 м
[Cb calv As op]
+11.9 -5.0 30 +11 +11 1012.6 995.3
18 18.05 ЮВ 3 20 км 10/3 600 м
[Cb calv Ci sp]
+10.3 -5.3 33 +9 +9 1011.0 993.7
21 18.05 ЮВ 2 20 км 10/5 600 м
[Cb calv Ci sp]
+10.9 -6.1 30 +10 +10 1009.4 992.1
00 19.05 В 2 50 км 10/3 600 м
[Cb calv Ac trans Ci sp]
+10.7 -4.7 34 +10 +11 1008.0 990.7 +9.1
03 19.05 ЮВ 3
{10}
50 км 8/0
[Ci fib]
+19.2 -7.1 16 +19 +26 1004.1 987.4
06 19.05 ЮЗ 7-12
{17}
50 км 10/6 1000 м
[Cb calv Ac trans Ci sp]
+23.0 -6.7 13 +21 +22 комфорт 1002.5 986.0
09 19.05 ЮЗ 8-13
{18}
50 км 10/8 1000 м
[Cb calv Ci sp]
+25.1 -6.9 11 +22 +23 комфорт 1000.7 984.4
12 19.05 ЮЗ 7-12
{16}
50 км 10/10 1000 м
[Cb calv]
+23.1 -2.4 18 +22 +22 комфорт 1001.7 985.2 +26.1
15 19.05 З 5-12
{17}
20 км {ливн. осадки} 4/3 600 м
[Cb calv Ci sp]
+17.3 +3.6 40 +17 +17 1003.6 986.8
18 19.05 СЗ 2
{12}
20 км {ливн. осадки} 5/3 600 м
[Cb calv Ac trans Ci sp]
+11.8 +5.8 67 +11 +11 1006.3 989.1
21 19.05 штиль 0 20 км 3/3 600 м
[Cb calv Ac trans]
+6.6 +5.2 91 +6 +6 1007.6 990.1
00 20.05 штиль 0 50 км 8/3 600 м
[Cb calv Ac trans Ci sp]
+9.0 +8.2 95 +8 +9 1007.7 990.4 +5.0 0.3
03 20.05 ЮВ 1 50 км 6/4 600 м
[Cu hum Ci fib]
+15.5 +7.0 57 +16 +22 1005.8 988.9
06 20.05 З 3 50 км 10/6 600 м
[Cb calv Ci fib]
+20.3 -0.4 25 +21 +25 комфорт 1003.5 986.8
09 20.05 З 5
{15}
50 км 10/8 600 м
[Cb calv Ci sp]
+20.1 +1.3 29 +20 +21 1003.5 986.8
12 20.05 З 7-11
{14}
50 км 10/8 600 м
[Cb calv Ci sp]
+20.6 -1.5 23 +20 +20 1002.5 985.8 +22.4
15 20.05 З 1
{16}
20 км 8/4 1000 м
[Cb calv Ci sp]
+15.7 -3.2 27 +17 +17 1003.0 986.1
18 20.05 З 4
{15}
20 км слаб. ливневой дождь 10/10 600 м
[Cb calv]
+11.3 +4.7 64 +9 +9 1004.0 986.8
21 20.05 ЮВ 1 20 км в посл. час ливневой дождь 8/8 600 м
[Cb calv]
+9.5 +8.4 93 +9 +9 1001.8 984.5
00 21.05 штиль 0 4000 м слаб. ливневой дождь 10/8 600 м
[Cb calv As op]
+8.4 +7.8 96 +7 +8 998.9 981.7 +8.1 2
03 21.05 СЗ 3 10 км слаб. ливневой дождь 10/8 600 м
[Cb calv As op]
+8.4 +7.0 91 +6 +6 998.9 981.7 +7.9
06 21.05 С 2 50 км {ливн. осадки} 9/4 600 м
[Cb calv Ac trans]
+10.4 +4.6 67 +9 +14 1000.7 983.6
09 21.05 ЮЗ 5-10
{10}
50 км 8/5 600 м
[Cb calv Ci fib]
+12.9 +4.5 57 +11 +13 1001.5 984.5
12 21.05 ЮЗ 4
{11}
50 км 9/3 600 м
[Cb calv Ac trans]
+13.2 +2.8 49 +12 +12 1001.3 984.3 +14.4 6
15 21.05 Ю 2 20 км 8/8 600 м
[Cb calv]
+11.4 +3.1 57 +11 +11 1001.2 984.1
18 21.05 ЮЗ 3 20 км 10/6 600 м
[Cb calv Ci sp]
+9.2 +4.3 71 +7 +7 1001.9 984.7
21 21.05 ЮЗ 4 20 км 4/4 600 м
[Cb calv]
+7.2 +3.3 76 +4 +4 1001.9 984.5
00 22.05 З 6-10
{13}
20 км слаб. ливневой дождь 10/10 600 м
[Cb calv]
+6.7 +4.2 84 +2 +2 1003.9 986.5 +6.3 0.3
03 22.05 З 6
{12}
50 км {ливн. осадки} 10/10 600 м
[Cb calv]
+8.6 +4.3 74 +5 +5 1006.3 988.9
06 22.05 З 5
{11}
50 км {ливн. осадки} 9/5 600 м
[Cb calv Ci sp]
+10.9 +4.1 63 +8 +12 1006.3 989.1
09 22.05 С 3
{10}
20 км слаб. ливневой дождь 10/10 600 м
[Cb calv]
+8.7 +5.4 80 +6 +6 1006.2 988.9
12 22.05 ЮВ 3 50 км {ливн. осадки} 4/3 600 м
[Cb calv Ci sp]
+10.5 +5.4 71 +9 +10 1005.2 988.0 +14.4 1
15 22.05 штиль 0 20 км {ливн. осадки} 3/3 600 м
[Cb calv]
+5.8 +4.0 88 +5 +5 1005.3 987.8
18 22.05 З 2 20 км {ливн. осадки} 1/1 600 м
[Cb calv]
+2.2 +1.2 93 -1 -1 1005.4 987.7
21 22.05 ЮЗ 2 20 км 3/1 600 м
[Sc Ac trans]
+2.6 +1.5 92 -1 -1 1006.8 989.0
00 23.05 З 4 20 км 9/8 600 м
[Cb calv Ac trans]
+5.2 +2.5 83 +1 +1 1008.8 991.2 +2.2 0.0
03 23.05 З 2 50 км {ливн. осадки} 10/6 600 м
[Cb calv Ci fib]
+10.7 +2.7 58 +10 +13 1009.3 992.0
06 23.05 З 3
{13}
10 км слаб. ливневой дождь 9/9 600 м
[Cb calv]
+7.3 +5.2 87 +4 +6 1010.4 992.9
09 23.05 С 3 20 км слаб. ливневой дождь 10/9 600 м
[Cb calv Ci fib]
+11.3 +2.8 56 +10 +10 1010.5 993.2
12 23.05 ЮЗ 4 50 км в посл. час ливневой дождь 10/6 600 м
[Cb calv Ci sp]
+11.6 +3.0 56 +10 +10 1011.5 994.2 +12.8 3
15 23.05 ЮЗ 3 20 км 9/6 600 м
[Cb calv Ac trans Ci sp]
+9.5 +3.8 68 +7 +7 1013.7 996.3
18 23.05 ЮЗ 3 20 км 6/1 600 м
[Cb calv Ci fib]
+7.8 +2.9 71 +5 +5 1014.8 997.2
21 23.05 ЮЗ 2 20 км 10/10 600 м
[Cb calv]
+7.3 +2.3 71 +5 +5 1015.9 998.3
00 24.05 ЮЗ 3 50 км 10/6 600 м
[Cb calv Ac trans Ci sp]
+8.0 +3.2 72 +5 +6 1017.2 999.6 +6.6
03 24.05 З 4 50 км 10/3 600 м
[Cb calv Ac trans Ci sp]
+11.4 +3.4 58 +9 +12 1018.0 1000.6
06 24.05 З 7-11
{14}
10 км слаб. ливневой дождь 10/10 600 м
[Cb calv]
+7.0 +4.6 85 +2 +2 1018.7 1001.0
09 24.05 Ю 4
{13}
50 км в посл. час ливневой дождь 10/10 600 м
[Cb calv]
+11.0 +3.3 59 +9 +9 1016.6 999.2
12 24.05 ЮВ 1 50 км {ливн. осадки} 10/5 600 м
[Cb calv Ci sp]
+13.1 +2.7 49 +14 +15 1015.8 998.6 +14.4 3
15 24.05 ЮВ 2 20 км 6/6 600 м
[Cb calv]
+10.7 +3.3 60 +10 +10 1015.8 998.4
18 24.05 ЮВ 3 20 км ясно +8.8 +3.1 67 +7 +7 1016.2 998.6

 

Местоположение метеостанции Мариинск (Кемеровская область, Россия): широта 56.18 долгота 87.68 высота над уровнем моря 144 м.

В архиве по умолчанию представлена погода в Мариинске за последнюю неделю. Архивные данные за месяц целиком и за предыдущие месяцы, начиная с января 2011 года, Вы можете получить, выбрав интересующий диапазон дат из раскрывающегося списка и нажав кнопку "Ввод!".


*Определитесь, кто Вы:
робот инопланетянин человек

Внимание! Время в таблицах - всемирное. Для получения местного времени необходимо прибавить поправку, которая равна 7 ч.

Смотрите также архив погоды в соседних городах и на ближайших метеорологических станциях:

Погода в Тяжине (Кемеровская область, Россия) (52 км)
Погода в Тисуле (Кемеровская область, Россия) (61 км)
Погода в Яе (Кемеровская область, Россия) (75 км)
Погода в Барзасе (Кемеровская область, Россия) (103 км)
Погода в Тюхтете (Красноярский край, Россия) (108 км)
Погода в Центральном Руднике (Кемеровская область, Россия) (109 км)
Погода в Боготоле (Красноярский край, Россия) (118 км)
Погода в Шарыпово (Красноярский край, Россия) (119 км)
Погода в Кемерово АМС (Кемеровская область, Россия) (127 км)
Погода в Тегульдете (Томская область, Россия) (128 км)

Пояснения к столбцам:

Ветер - указаны скорость ветра в м/с - средняя за 10 мин, порывы в срок и между сроками (в фигурных скобках) и направление, откуда дует ветер: С - северный, СВ - северо-восточный, В - восточный, ЮВ - юго-восточный, Ю - южный, ЮЗ - юго-западный, З - западный, СЗ - северо-западный.
Видимость - горизонтальная дальность видимости в метрах или километрах. При видимости от 1 до 10 км при отсутствии осадков обычно наблюдается дымка, при ухудшении видимости до 1 км и менее - туман. В сухую погоду видимость может ухудшаться дымом, пылью или мглою.
Явления - указаны атмосферные явления, наблюдавшиеся в срок или в последний час перед сроком; фигурными скобками обозначены явления, наблюдавшиеся между сроками (за 1-3 часа до срока); квадратными скобками обозначены град или гололедные отложения с указанием их диаметра в мм.
Облачность - указаны через наклонную черту общая и нижняя облачность в баллах и высота нижней границы облаков в метрах; квадратными скобками обозначены формы облаков: Ci - перистые, Cs - перисто-слоистые, Cc - перисто-кучевые, Ac - высококучевые, As - высокослоистые, Sc - слоисто-кучевые, Ns - слоисто-дождевые, Cu - кучевые, Cb - кучево-дождевые. Подробнее классификацию облаков см. в Атласе облаков (PDF).
T - Температура воздуха - температура, измеренная на высоте 2 м над землей.
Td - Температура точки росы - температура, при понижении до которой содержащийся в воздухе водяной пар достигнет насыщения.
f - Относительная влажность воздуха - влажноcть воздуха, измеренная на высоте 2 м над землей.
Te - Эффективная температура - температура, которую ощущает одетый по сезону человек в тени. Характеристика душности погоды. При расчете учитывается влияние влажности воздуха и скорости ветра на теплоощущения человека.
Tes - Эффективная температура на солнце - температура, которую ощущает человек, с поправкой на солнечный нагрев. Характеристика знойности погоды. Зависит от высоты солнца над горизонтом, облачности и скорости ветра. Ночью, в пасмурную погоду, а также при ветре 12 м/с и более поправка равна нулю.
P - Атмосферное давление - приведенное к уровню моря атмосферное давление.
Po - Атмосферное давление - измеренное на уровне метеостанции атмосферное давление.
Tmin - Минимальная температура - минимум температуры воздуха на высоте 2 м над землей.
Tmax - Максимальная температура - максимум температуры воздуха на высоте 2 м над землей.
R - Количество осадков - Количество выпавших осадков за период времени, мм. При наведении курсора мыши на число - период времени, за который выпало указанное количество осадков.
R24 - Количество осадков - Количество выпавших осадков за 24 часа, мм.
S - Снежный покров - Высота снежного покрова, см. При наведении курсора мыши на число - состояние снежного покрова и степень покрытия местности в баллах.